Regional Weather Roundup
Issued by NWS

Home | Current Version | Previous Version | Graphics & Text | Print | Product List | Glossary On
Versions: 1 2 3 4 5 6 7 8 9 10 11 12 13 14 15 16 17 18 19 20 21 22 23 24 25 26 27 28 29 30 31 32 33 34 35 36 37 38 39 40 41 42 43 44 45 46 47 48 49 50
000
ASUS43 KIND 261500
RWRIN

WEATHER ROUNDUP FOR INDIANA
NATIONAL WEATHER SERVICE INDIANAPOLIS IN
1100 AM EDT TUE SEP 26 2017

NOTE: "FAIR" INDICATES FEW OR NO CLOUDS BELOW 12,000 FEET WITH NO
SIGNIFICANT WEATHER AND/OR OBSTRUCTIONS TO VISIBILITY.

* - STATION DOES NOT REPORT WEATHER SUCH AS PRECIPITATION OR FOG.

+ - STATION NOT QUALITY CONTROLLED BY THE NATIONAL WEATHER SERVICE.
    USE DATA WITH CAUTION...ESPECIALLY DEWPOINT AND RELATIVE
    HUMIDITY OBSERVATIONS.

INZ001>003-010>013-019-020-261600-
NORTHWEST INDIANA

CITY           SKY/WX    TMP DP  RH WIND       PRES   REMARKS
GARY /AIRPORT/ MOSUNNY   81  61  50 SW6       29.98S
KNOX *+        SUNNY     79  64  61 SW7       30.00S
LA PORTE +     SUNNY     79  64  60 SW5       30.01R
MICHIGAN CITY+ SUNNY     81  64  57 SW5       29.99S
MONTICELLO +   SUNNY     80  66  62 SE3       30.01R
RENSSELAER +   SUNNY     82  55  39 S7        30.00S

$$

LMZ046-743>745-261600-
SOUTHERN LAKE MICHIGAN

STATION/POSITION TIME  TEMP    WIND        PRES    WAVE
                       AIR SEA DIR/SP/G            HT
                 (UTC) (F)     (DEG/KT/KT) (MB)    (FT)
BURNS HARBOR     1440   78     210/  7/ 10 1015.6R
MICHIGAN CITY    1430   76     190/  7/  8   N/A
5NW MICH CITY    1450   73 72  200/  4/  6   N/A     1

$$

INZ004-005-014>016-021>024-261600-
NORTH CENTRAL INDIANA

CITY           SKY/WX    TMP DP  RH WIND       PRES   REMARKS
ELKHART        SUNNY     77  64  65 CALM      30.00S
GOSHEN         SUNNY     79  63  57 S6        30.01S
SOUTH BEND     SUNNY     78  65  63 SW5       30.00S
WARSAW +       SUNNY     77  64  65 S3        30.02S

$$

INZ006>009-017-018-025>027-261600-
NORTHEAST INDIANA

CITY           SKY/WX    TMP DP  RH WIND       PRES   REMARKS
AUBURN +       SUNNY     79  64  61 CALM      30.03S
FORT WAYNE     MOSUNNY   80  66  62 SW6       30.03S
KENDALLVILLE + SUNNY     78  67  68 SW5       30.03S

$$

INZ028-029-035-036-043>045-051>053-261600-
WEST CENTRAL INDIANA

CITY           SKY/WX    TMP DP  RH WIND       PRES   REMARKS
GREENCASTLE +  SUNNY     81  64  57 CALM      30.04F
LAFAYETTE      SUNNY     81  66  60 S5        30.01
TERRE HAUTE    SUNNY     82  65  56 SW3       30.02F

$$

INZ030>032-037>040-046>048-054>057-064-065-261600-
CENTRAL INDIANA

CITY           SKY/WX    TMP DP  RH WIND       PRES   REMARKS
COLUMBUS       SUNNY     77  64  65 CALM      30.04S
GREENWOOD *+   SUNNY     83  68  62 SE3       30.05S
INDIANAPOLIS   SUNNY     83  66  56 SW5       30.04R
-EAGLE CREEK   SUNNY     82  65  56 S5        30.03R
KOKOMO +       SUNNY     81  66  60 SW5       30.04R
MT COMFORT *+  SUNNY     81  66  61 SW5       30.04S
SHELBYVILLE    SUNNY     81  64  56 SW3       30.04S

$$

INZ033-034-041-042-049-050-058-059-261600-
EAST CENTRAL INDIANA

CITY           SKY/WX    TMP DP  RH WIND       PRES   REMARKS
MUNCIE         SUNNY     84  65  52 VRB5      30.04S
RICHMOND +     SUNNY     79  63  57 SW3       30.07S

$$

INZ060-061-067>069-081>083-085>088-261600-
SOUTHWEST INDIANA

CITY           SKY/WX    TMP DP  RH WIND       PRES   REMARKS
EVANSVILLE     SUNNY     82  67  60 CALM      30.02F
HUNTINGBURG +  SUNNY     79  68  69 CALM      30.03F

$$

INZ062-063-066-070>080-084-089>092-261600-
SOUTH CENTRAL AND SOUTHEAST INDIANA

CITY           SKY/WX    TMP DP  RH WIND       PRES   REMARKS
BLOOMINGTON    SUNNY     84  63  49 W7        30.04S
MADISON *+     SUNNY     81  63  54 CALM      30.07S
SEYMOUR +      SUNNY     82  64  54 CALM      30.04R

$$





USA.gov is the U.S. government's official web portal to all federal, state and local government web resources and services.